Champaign, IL

5:59 PM CDT on May 24, 2017 (GMT -0500)
Univ Of Illinois-Willard

Weather History for KCMI - January, 2013

Change the Weather History Date:

Thursday, January 31, 2013

  Actual Average Record
Temperature  
Mean Temperature 16 °F 26 °F  
Max Temperature 25 °F 34 °F 61 °F (2012)
Min Temperature 7 °F 18 °F -14 °F (2004)
Degree Days  
Heating Degree Days 49 39  
Month to date heating degree days 1131 1231  
Since 1 July heating degree days 3184 3510  
Cooling Degree Days 0 0  
Month to date cooling degree days 0 0  
Year to date cooling degree days 0 0  
Moisture  
Dew Point 11 °F    
Average Humidity 75    
Maximum Humidity 88    
Minimum Humidity 62    
Precipitation  
Precipitation T in 0.05 in 1.01 in (2002)
Month to date precipitation 2.37 2.05  
Year to date precipitation 2.37 2.05  
Sea Level Pressure  
Sea Level Pressure 29.98 in    
Wind  
Wind Speed 24 mph (West)    
Max Wind Speed 33 mph    
Max Gust Speed 39 mph    
Visibility 9 miles    
Events Snow    
T = Trace of Precipitation, MM = Missing Value Source: NWS Daily Summary

Daily Weather History Graph

Daily Weather History Graph

Search for Another Location

Airport or City:

Trip Planner

Search our weather history database for the weather conditions in past years. The results will help you decide how hot, cold, wet, or windy it might be!

Date:

Astronomy

Jan. 31, 2013 Rise Set
Actual Time 7:02 AM CST 5:11 PM CST
Civil Twilight 6:33 AM CST 5:40 PM CST
Nautical Twilight 6:01 AM CST 6:12 PM CST
Astronomical Twilight 5:29 AM CST 6:44 PM CST
Moon 10:13 PM CST (1/31) 9:01 AM CST (1/31)
Length of Visible Light 11h 06m
Length of Day
10h 09m
Waning Gibbous, 79% of the Moon is Illuminated
Jan 31
Waning Gibbous
Feb 3
Last Quarter
Feb 10
New
Feb 17
First Quarter
Feb 25
Full

Hourly Weather History & Observations

Time (CST) Temp. Windchill Dew Point Humidity Pressure Visibility Wind Dir Wind Speed Gust Speed Precip Events Conditions
12:50 AM 21.2 °F 3.9 °F 15.8 °F 80% 29.78 in 10.0 mi West 26.5 mph 36.8 mph N/A   Mostly Cloudy
12:53 AM 21.9 °F 4.5 °F 15.1 °F 75% 29.81 in 10.0 mi West 27.6 mph 34.5 mph N/A   Mostly Cloudy
1:53 AM 19.9 °F 1.3 °F 12.9 °F 74% 29.83 in 8.0 mi West 29.9 mph 36.8 mph 0.00 in Snow Light Snow
2:46 AM 19.4 °F 3.2 °F 12.2 °F 74% 29.83 in 10.0 mi West 20.7 mph 32.2 mph 0.00 in   Scattered Clouds
2:53 AM 19.0 °F 2.4 °F 12.9 °F 77% 29.86 in 10.0 mi West 21.9 mph 29.9 mph 0.00 in   Scattered Clouds
3:16 AM 19.4 °F 3.6 °F 12.2 °F 74% 29.83 in 10.0 mi West 19.6 mph 27.6 mph N/A   Mostly Cloudy
3:53 AM 21.0 °F 5.7 °F 15.1 °F 78% 29.86 in 10.0 mi West 19.6 mph 23.0 mph N/A   Overcast
4:07 AM 21.2 °F 6.0 °F 15.8 °F 80% 29.83 in 10.0 mi West 19.6 mph - N/A   Overcast
4:53 AM 21.0 °F 7.6 °F 16.0 °F 81% 29.86 in 10.0 mi West 15.0 mph - N/A   Overcast
5:53 AM 24.1 °F 11.0 °F 17.1 °F 75% 29.85 in 9.0 mi WSW 16.1 mph 24.2 mph 0.00 in Snow Light Snow
6:17 AM 23.0 °F 8.7 °F 17.6 °F 80% 29.83 in 2.5 mi West 18.4 mph 27.6 mph 0.00 in Snow Light Snow
6:38 AM 23.0 °F 9.2 °F 19.4 °F 86% 29.84 in 8.0 mi West 17.3 mph 27.6 mph 0.00 in Snow Light Snow
6:53 AM 23.0 °F 7.6 °F 19.0 °F 85% 29.87 in 9.0 mi WSW 21.9 mph 27.6 mph 0.00 in Snow Light Snow
7:53 AM 24.1 °F 9.0 °F 18.0 °F 77% 29.90 in 10.0 mi West 21.9 mph 27.6 mph 0.00 in   Overcast
8:04 AM 24.8 °F 11.1 °F 19.4 °F 80% 29.88 in 10.0 mi West 18.4 mph - N/A   Overcast
8:53 AM 23.0 °F 8.0 °F 17.1 °F 78% 29.93 in 9.0 mi WNW 20.7 mph - 0.00 in   Overcast
9:53 AM 23.0 °F 8.7 °F 15.1 °F 72% 29.96 in 10.0 mi WNW 18.4 mph - 0.00 in   Overcast
10:53 AM 23.0 °F 6.3 °F 15.1 °F 72% 29.98 in 10.0 mi West 26.5 mph 32.2 mph N/A   Overcast
11:53 AM 24.1 °F 8.3 °F 15.1 °F 69% 29.97 in 10.0 mi West 24.2 mph 32.2 mph N/A   Overcast
12:53 PM 25.0 °F 9.9 °F 15.1 °F 66% 29.96 in 10.0 mi West 23.0 mph 29.9 mph N/A   Overcast
1:53 PM 24.1 °F 8.3 °F 15.1 °F 69% 29.97 in 8.0 mi WNW 24.2 mph - 0.00 in Snow Light Snow
2:53 PM 21.9 °F 4.5 °F 12.0 °F 66% 29.99 in 10.0 mi West 27.6 mph 34.5 mph 0.00 in   Mostly Cloudy
3:16 PM 21.2 °F 4.5 °F 10.4 °F 63% 29.97 in 10.0 mi West 24.2 mph 33.4 mph N/A   Overcast
3:53 PM 19.0 °F 1.6 °F 9.0 °F 65% 30.03 in 10.0 mi West 24.2 mph 32.2 mph N/A   Overcast
4:04 PM 19.4 °F 1.1 °F 8.6 °F 63% 30.00 in 7.0 mi WNW 27.6 mph 34.5 mph 0.00 in Snow Light Snow
4:53 PM 15.1 °F -5.0 °F 7.0 °F 70% 30.07 in 6.0 mi WNW 28.8 mph 34.5 mph 0.00 in Snow Light Snow
5:09 PM 15.8 °F -3.7 °F 6.8 °F 68% 30.04 in 2.5 mi WNW 27.6 mph 33.4 mph 0.00 in Snow Light Snow
5:17 PM 14.0 °F -5.5 °F 6.8 °F 73% 30.04 in 3.0 mi WNW 25.3 mph 33.4 mph 0.00 in Snow Light Snow
5:41 PM 14.0 °F -6.2 °F 6.8 °F 73% 30.06 in 9.0 mi WNW 27.6 mph 33.4 mph 0.00 in   Overcast
6:17 PM 12.2 °F -8.2 °F 6.8 °F 79% 30.08 in 4.0 mi WNW 26.5 mph 32.2 mph 0.00 in Snow Light Snow
6:53 PM 12.0 °F -7.3 °F 3.0 °F 67% 30.14 in 10.0 mi WNW 23.0 mph 34.5 mph 0.00 in   Mostly Cloudy
7:11 PM 10.4 °F -9.5 °F 1.4 °F 67% 30.10 in 10.0 mi WNW 23.0 mph 34.5 mph N/A   Scattered Clouds
7:53 PM 10.0 °F -10.0 °F 1.0 °F 67% 30.17 in 10.0 mi WNW 23.0 mph 39.1 mph N/A   Partly Cloudy
8:53 PM 9.0 °F -11.4 °F 1.0 °F 70% 30.21 in 9.0 mi WNW 23.0 mph 36.8 mph 0.00 in Snow Light Snow
9:53 PM 8.1 °F -13.8 °F -2.0 °F 64% 30.23 in 10.0 mi WNW 26.5 mph 33.4 mph N/A   Partly Cloudy
10:53 PM 8.1 °F -13.4 °F -0.0 °F 70% 30.26 in 10.0 mi WNW 25.3 mph 33.4 mph N/A   Mostly Cloudy
11:53 PM 7.0 °F -14.5 °F -0.0 °F 73% 30.28 in 6.0 mi WNW 24.2 mph 32.2 mph 0.00 in Snow Light Snow